Theta_e
330 331 331 332 332 331 331 330 330 331 331 330 330 329 328 327 326 326 325 325 325 325 323 323 322 322 321 320 320 320 320 320 320 320 318 317 315 314 312 310 309 308 305
326 329 329 331 332 331 330 330 330 330 331 331 330 329 328 327 327 326 326 326 324 324 323 322 321 321 320 320 320 320 319 320 319 318 316 313 311 310 308 307 305 301 300
322 325 327 328 330 331 331 330 329 330 330 330 330 329 328 328 327 327 326 325 324 323 322 321 320 320 320 320 320 320 320 320 319 316 311 309 307 306 305 303 299 300 300
317 323 325 327 328 329 329 330 330 330 329 329 329 329 328 328 327 327 326 325 323 322 322 321 320 320 321 320 321 321 320 318 315 311 308 307 305 303 301 299 299 299 298
314 320 324 325 326 327 328 328 329 329 329 329 329 329 328 327 326 326 326 325 323 322 321 321 320 321 321 322 321 319 317 313 310 308 305 302 300 300 299 297 296 295 295
312 316 319 323 324 326 326 327 328 329 329 329 329 328 327 327 326 326 326 325 324 322 321 320 321 321 320 320 318 316 314 311 308 305 302 300 299 299 297 295 294 293 292
308 311 315 320 323 323 324 325 326 328 329 329 329 328 326 325 325 324 325 324 323 321 321 321 318 316 317 315 312 310 307 305 303 302 300 299 299 298 296 294 293 292 292
308 308 310 315 320 321 322 323 324 325 327 327 326 325 324 323 322 322 322 322 321 321 320 320 317 314 312 309 307 305 302 301 299 298 299 298 297 296 295 295 292 291 290
307 307 307 309 315 318 319 320 321 323 323 322 322 321 321 321 321 320 319 319 319 318 317 315 313 311 308 307 305 302 299 297 296 297 297 297 296 295 293 291 290 290 290
307 309 308 307 310 313 313 314 314 316 316 317 317 318 318 318 317 317 317 317 313 311 308 307 306 307 306 304 303 300 296 296 295 295 293 292 292 291 291 291 291 290 290
310 308 307 305 306 307 308 309 310 312 312 311 311 312 313 314 313 309 310 313 309 304 303 301 302 302 301 299 299 298 297 295 293 293 292 291 291 291 290 289 289 289 289
306 306 305 305 304 304 305 306 307 308 306 304 303 303 305 307 309 305 305 306 307 305 301 301 299 297 296 295 294 294 293 293 292 291 291 290 290 289 288 287 287 287 287
299 303 304 302 301 302 302 302 302 302 301 299 298 298 298 301 302 303 301 303 302 300 299 298 296 293 292 292 292 292 292 291 291 290 290 290 289 288 287 287 286 285 285
295 298 299 297 296 296 298 300 300 298 299 299 298 298 295 295 297 298 299 299 299 297 297 296 293 291 291 291 291 291 291 291 290 290 289 289 287 286 286 286 285 285 285
291 293 294 294 294 294 295 295 297 298 300 298 299 298 294 294 295 298 297 296 295 295 293 291 289 289 289 289 289 290 290 289 289 288 288 287 286 285 285 284 284 284 284
289 291 292 292 293 293 293 294 295 296 296 297 297 297 295 296 295 296 296 295 295 293 291 289 288 287 287 286 286 287 287 287 287 286 286 285 285 284 284 284 284 284 283
289 291 291 292 292 292 292 293 293 294 296 296 296 295 296 296 294 295 294 293 293 291 290 289 288 288 288 287 286 286 286 286 285 284 284 284 283 283 283 283 283 283 283
287 289 291 292 292 292 293 293 293 293 293 293 294 295 294 294 293 292 291 291 290 290 290 289 289 288 288 287 286 286 285 284 283 283 283 283 283 283 283 282 281 280 279
285 287 288 290 291 292 292 292 292 292 292 290 290 291 292 292 292 290 290 290 290 289 289 289 288 288 287 286 285 285 283 282 282 282 282 282 281 281 280 279 278 278 276
279 283 285 287 289 290 291 291 290 290 289 288 289 289 289 289 289 289 289 289 289 289 288 287 287 286 286 285 284 283 281 280 280 279 279 279 278 278 277 277 275 274 274
276 277 278 281 284 286 288 289 288 288 287 288 288 288 289 289 289 289 289 288 288 285 285 286 286 285 284 283 282 280 279 279 278 277 276 276 276 275 275 274 273 273 272
274 275 275 276 277 279 282 284 285 285 285 283 283 286 287 287 285 284 282 283 284 286 286 286 284 283 281 280 280 279 278 277 276 275 275 274 274 273 273 272 272 271 270
271 272 273 274 274 275 276 278 279 280 279 280 281 280 280 281 281 281 282 283 283 283 282 282 281 279 278 278 278 277 277 276 276 275 274 273 272 272 271 271 270 269 269
269 270 271 271 272 273 273 274 274 275 275 276 276 276 277 277 277 278 277 278 278 279 278 278 278 277 276 276 276 275 275 275 274 274 273 272 271 270 270 269 269 269 268
267 267 268 268 269 270 271 272 272 272 273 273 273 273 273 273 273 274 274 274 275 275 274 274 274 275 275 275 274 274 274 273 273 272 272 271 270 270 269 269 268 268 267
265 265 266 266 267 267 268 268 269 270 270 271 271 272 272 272 272 272 272 272 272 272 272 272 272 273 273 273 271 272 272 272 272 271 270 270 269 269 268 268 267 267 267
Wind_Speed
34 37 37 39 42 40 42 40 42 40 39 41 41 42 42 42 42 41 39 35 36 35 34 35 36 34 32 32 31 28 26 26 15 11 13 14 15 14 14 14 17 20 19
34 34 36 35 36 38 39 41 39 40 40 41 41 42 43 43 42 41 38 35 36 35 37 35 36 32 32 31 29 29 29 28 22 15 12 12 11 10 11 16 19 17 17
30 33 33 33 34 37 40 40 39 39 39 40 41 42 42 42 41 42 39 35 36 38 36 35 33 32 31 30 30 30 30 26 24 19 10 9 9 13 14 15 16 14 11
28 30 32 33 34 36 36 37 38 39 38 40 40 40 40 40 40 39 38 34 34 36 36 35 33 33 32 30 30 29 26 22 20 16 14 13 13 13 11 12 11 10 13
26 31 34 39 37 36 36 37 38 39 39 40 39 40 40 39 39 39 39 37 33 33 34 32 32 31 28 29 26 26 22 20 18 16 13 9 6 8 10 6 8 11 10
27 33 35 33 35 39 39 39 39 40 42 40 40 39 38 39 39 39 40 40 38 35 33 32 31 29 27 25 23 22 22 20 20 17 13 9 9 9 8 5 5 3 2
29 34 34 33 35 37 40 40 40 41 41 42 42 43 41 40 39 39 39 40 40 37 35 33 29 26 25 23 21 18 17 17 18 17 14 12 10 8 6 5 6 6 5
29 31 31 33 37 37 37 40 40 40 42 42 41 40 41 42 40 39 39 37 35 35 34 32 31 27 24 22 19 17 16 16 15 15 14 12 12 11 10 9 8 5 2
31 29 32 35 37 35 35 37 39 39 40 42 42 42 42 42 40 38 37 36 34 33 31 28 28 27 25 22 22 21 18 15 11 11 12 11 11 10 10 9 9 8 3
29 35 36 35 36 37 37 37 37 39 39 41 40 41 42 41 38 37 39 36 33 31 27 26 25 25 25 26 25 25 21 19 16 14 13 11 10 9 9 9 9 9 6
36 35 34 34 38 38 34 36 38 37 36 36 37 36 37 37 36 35 36 35 33 29 28 25 24 25 24 23 22 23 21 18 17 15 13 11 9 8 8 8 7 7 7
33 34 34 34 35 32 31 34 34 35 32 29 27 27 29 30 33 34 31 28 28 30 30 28 26 25 24 21 19 18 17 19 19 18 16 13 12 11 7 5 7 7 6
36 35 34 31 30 30 29 28 27 30 25 22 23 21 26 28 30 32 30 28 27 28 30 29 26 22 21 19 19 22 22 21 21 21 18 15 12 9 6 5 3 1 1
28 32 29 23 22 22 27 30 26 24 21 21 21 20 22 27 29 30 29 26 25 25 25 26 26 23 23 22 21 22 21 20 21 19 17 14 11 9 8 6 5 3 3
23 21 18 16 17 17 20 22 26 28 32 29 29 28 27 26 34 38 36 34 32 30 29 28 26 25 24 23 22 22 21 19 18 18 18 16 14 12 11 7 6 5 3
19 14 12 12 14 15 16 15 21 20 25 25 24 31 28 25 33 38 36 34 32 31 29 23 21 20 19 20 20 21 21 20 19 19 19 17 15 13 10 8 6 3 2
18 16 14 14 14 13 15 15 12 12 20 24 24 28 30 32 31 39 37 32 32 34 24 21 19 21 20 21 21 21 19 22 21 19 17 16 15 12 9 7 5 3 2
20 15 13 12 14 14 15 16 15 14 11 14 22 25 26 27 28 36 37 33 28 27 23 25 22 22 21 22 22 23 24 23 20 18 18 17 15 14 12 9 6 5 3
20 16 13 11 10 14 13 14 13 12 11 11 15 18 23 22 26 32 35 28 28 24 21 22 24 24 24 27 27 26 26 24 23 21 19 18 16 15 12 10 9 6 4
25 24 20 15 10 8 9 10 9 9 9 12 14 16 22 26 26 28 29 26 26 25 25 25 28 29 28 28 28 27 24 22 21 20 19 17 15 14 13 12 10 9 7
28 29 31 24 18 10 4 4 5 9 11 10 11 16 21 23 21 24 25 25 26 27 29 31 29 29 29 28 27 25 23 22 21 21 19 18 16 16 14 12 10 9 8
30 29 27 24 23 22 14 5 4 7 8 10 12 16 16 17 17 17 18 23 27 29 29 28 28 28 28 28 26 24 23 22 22 20 19 17 16 16 15 14 13 12 9
31 28 26 25 23 22 20 20 16 10 6 5 6 9 10 13 15 18 20 21 21 21 22 24 25 25 23 22 21 20 22 22 21 20 20 19 18 17 16 15 14 12 10
29 27 24 24 24 22 23 21 20 18 13 9 6 6 5 6 8 9 12 14 16 17 18 19 19 19 20 19 19 18 18 18 18 19 18 18 18 17 16 15 13 11 9
26 24 24 23 23 23 22 21 20 20 20 17 13 10 7 6 6 6 6 9 11 13 15 15 16 16 16 17 18 18 19 19 18 18 18 19 18 18 16 15 13 11 10
25 25 23 23 23 22 21 21 21 21 20 18 14 11 9 7 5 2 1 4 8 10 11 12 14 15 16 17 17 19 20 19 19 19 19 19 19 19 17 15 14 13 11
Wind_Direction
223 226 223 222 221 220 220 221 219 218 215 213 215 214 217 217 219 219 220 220 219 227 229 230 234 238 238 241 242 240 235 239 243 252 243 253 246 249 260 269 280 278 275
231 229 228 226 223 223 223 225 222 220 218 217 213 214 213 216 221 218 215 218 224 223 225 227 233 233 236 237 237 236 238 237 236 245 230 229 237 257 270 284 286 287 296
244 234 233 230 225 225 226 225 224 221 219 217 214 212 211 212 212 216 216 219 222 224 225 225 229 229 232 230 235 237 238 244 249 239 224 225 247 266 277 283 295 294 301
245 237 234 230 230 229 228 227 225 222 219 217 214 213 213 213 213 214 215 217 221 225 227 230 230 231 231 236 238 240 235 235 235 235 243 246 252 265 272 289 285 297 311
241 238 235 234 231 231 231 230 228 224 221 217 215 215 215 213 215 216 217 215 215 222 227 228 228 231 234 235 234 235 227 225 230 235 233 225 223 264 268 268 288 310 325
241 238 237 234 233 230 229 229 228 224 221 218 215 211 213 215 219 220 220 217 218 219 220 222 224 227 226 223 226 228 231 228 234 235 236 220 238 250 261 275 287 311 305
252 249 245 238 236 233 230 227 226 224 221 218 218 220 218 220 219 220 222 223 221 220 221 219 213 211 214 220 220 219 229 235 241 237 225 227 231 231 227 234 237 231 230
253 250 252 246 238 236 234 230 228 222 219 217 221 224 225 226 223 223 220 221 221 221 221 219 211 211 213 211 214 219 224 222 221 226 227 225 226 229 237 232 228 217 237
251 253 257 254 241 233 230 233 227 221 222 226 226 226 224 224 222 219 215 215 216 214 212 210 210 210 212 216 213 211 209 212 210 211 216 212 208 205 203 194 193 172 160
255 262 265 260 242 235 232 229 229 228 225 225 222 222 222 222 220 217 212 208 198 196 200 204 206 210 217 215 209 204 199 199 195 188 182 174 176 178 187 204 196 178 151
270 272 270 263 247 241 230 223 225 224 224 223 223 222 221 219 208 200 200 198 199 195 196 195 201 205 204 204 207 205 204 190 178 178 175 173 177 192 203 208 217 211 177
291 281 273 263 247 239 226 221 220 215 207 205 203 203 209 208 205 196 200 205 208 207 204 203 199 195 194 193 195 183 180 171 168 167 169 170 175 177 189 206 231 208 199
303 286 273 262 249 236 218 209 200 201 192 186 187 186 191 199 200 202 200 210 211 206 205 200 190 186 184 179 180 175 172 167 167 167 172 173 178 184 193 204 223 213 86
298 285 273 257 244 229 213 206 197 193 194 189 187 187 181 186 194 198 198 201 203 202 198 187 182 175 177 177 175 177 179 174 174 174 172 175 177 180 192 197 177 150 104
317 301 277 256 236 225 221 210 205 208 202 195 198 191 179 186 195 199 196 194 194 194 180 170 165 168 169 175 175 175 178 175 174 175 171 171 178 182 178 183 177 165 159
320 310 287 268 249 233 223 221 221 224 216 212 203 198 197 200 195 200 200 197 196 188 169 166 167 167 169 172 169 171 180 175 175 173 171 173 181 180 178 188 183 181 180
319 317 305 282 260 245 233 226 214 204 218 216 208 204 211 205 202 198 195 190 190 180 171 173 173 171 171 169 165 167 167 173 172 173 172 173 180 177 178 176 192 204 203
326 333 322 298 275 257 244 231 217 195 185 187 206 206 208 209 204 192 181 170 171 183 180 171 171 173 173 170 170 169 172 171 170 173 175 178 180 174 170 170 183 182 190
334 339 342 322 290 268 238 216 194 191 191 168 161 189 197 201 199 185 174 177 174 182 179 171 168 168 169 177 178 177 176 174 178 178 182 190 193 189 184 194 203 211 220
353 354 354 343 329 277 244 216 187 183 173 174 179 182 173 170 179 183 184 182 176 179 174 166 166 172 178 180 177 178 176 175 178 182 188 189 188 190 189 196 203 198 199
8 5 7 3 350 327 245 190 167 164 165 179 185 178 180 184 191 188 186 183 174 166 164 171 176 180 183 182 182 181 182 186 191 192 190 187 186 182 186 190 193 193 199
17 13 10 8 3 351 357 30 144 154 156 166 175 180 183 189 177 165 162 158 163 176 182 184 182 183 184 185 185 187 190 194 194 193 191 188 186 185 184 184 186 193 197
20 14 13 13 12 9 11 22 24 36 71 123 135 147 159 161 162 166 168 167 170 174 176 183 183 179 183 188 191 197 200 201 200 198 192 188 187 187 189 189 189 191 196
20 16 12 12 12 16 20 20 23 35 44 55 67 89 116 134 149 159 166 165 166 168 177 179 183 186 186 187 195 198 199 202 201 198 196 192 190 191 191 193 197 198 199
17 17 14 13 14 12 12 17 26 33 35 39 46 52 57 73 98 125 155 170 170 178 182 181 185 190 196 198 199 199 203 201 199 199 199 198 197 197 198 199 199 202 202
11 15 15 10 10 10 11 12 14 16 17 21 26 32 33 38 36 35 232 203 198 198 197 198 198 200 201 205 206 206 207 205 205 206 206 204 202 202 204 207 208 210 211